Regional Weather Roundup
Issued by NWS

Home | Current Version | Previous Version | Graphics & Text | Print | Product List | Glossary On
Versions: 1 2 3 4 5 6 7 8 9 10 11 12 13 14 15 16 17 18 19 20 21 22 23 24 25 26 27 28 29 30 31 32 33 34 35 36 37 38 39 40 41 42 43 44 45 46 47 48 49 50
000
ASUS45 KBOU 220907
RWRCO

WEATHER ROUNDUP FOR COLORADO
NATIONAL WEATHER SERVICE DENVER/BOULDER CO
300 AM MDT WED MAR 22 2017

NOTE: "FAIR" INDICATES FEW OR NO CLOUDS BELOW 12000 FEET WITH NO
SIGNIFICANT WEATHER AND/OR OBSTRUCTIONS TO VISIBILITY.

COZ001>005-013-030-031-221000-
...NORTHWEST COLORADO...

CITY           SKY/WX    TMP DP  RH WIND       PRES   REMARKS
CRAIG          MOCLDY    41  28  60 W3        30.03F
HAYDEN         CLOUDY    50  27  40 E7        30.05F
MEEKER         CLOUDY    49  28  44 NE6       30.03F
MOUNT WERNER   NOT AVBL
STEAMBOAT SPGS CLOUDY    45  30  56 CALM      30.08S
WALDEN         NOT AVBL
$$

COZ006>008-011-221000-
...WEST CENTRAL VALLEYS...

CITY           SKY/WX    TMP DP  RH WIND       PRES   REMARKS
GRAND JUNCTION FAIR      57  31  37 E14       29.97F
MONTROSE       FAIR      52  29  41 S9        30.07F
EAGLE          FAIR      40  28  62 CALM      30.12
RIFLE          FAIR      48  32  53 CALM      30.03F
DELTA          FAIR      53  31  43 NE10      30.03F
NUCLA          FAIR      55  23  28 S3        30.10S
$$

COZ017>023-064>068-221000-
...SOUTHWEST COLORADO...

CITY           SKY/WX    TMP DP  RH WIND       PRES   REMARKS
DURANGO        FAIR      39  28  64 CALM      30.16S
CORTEZ         FAIR      41  30  65 E5        30.11S
PAGOSA SPRINGS FAIR      38  31  74 CALM      30.21S
TELLURIDE      NOT AVBL
WOLF CREEK PAS CLOUDY    34  21  60 S16G25    30.40F WCI  23
$$

COZ009-010-012-014-032>034-037-058>063-221000-
...CENTRAL COLORADO...

CITY           SKY/WX    TMP DP  RH WIND       PRES   REMARKS
ASPEN          FAIR      43  27  53 S10       30.13F
BUENA VISTA    FAIR      33  28  83 CALM      30.21F
COPPER MTN     FAIR      37  18  44 SW9       30.34S
BERTHOUD PASS  FAIR      30  19  64 W32G38    30.31S WCI  15
COTTONWOOD PAS MOCLDY    41  27  56 CALM      30.26F
GUNNISON       FAIR      34  30  85 E3        30.21F
KREMMLING      FAIR      41  30  65 CALM      30.15F
LEADVILLE      FAIR      27  21  78 CALM      30.24F
MONARCH PASS   CLOUDY    34  21  60 SW16      30.46S WCI  23
SALIDA         FAIR      41  34  75 S5        30.28R
SUNLIGHT       NOT AVBL
WILKERSON PASS FAIR      34  23  64 SW14G24   30.32F WCI  24
$$

COZ069>075-221000-
...SAN LUIS VALLEY/SANGRE DE CRISTO MOUNTAINS...

CITY           SKY/WX    TMP DP  RH WIND       PRES   REMARKS
ALAMOSA        FAIR      34  24  67 S7        30.18F WCI  28
LA VETA PASS   FAIR      43  23  45 S16G29    30.28F
SAGUACHE       FAIR      37  28  70 NW7       30.21F
$$

COZ035-036-038>040-221000-
...NORTHERN COLORADO FRONT RANGE...

CITY           SKY/WX    TMP DP  RH WIND       PRES   REMARKS
DENVER INTL AP FAIR      42  33  70 S15       30.06F
DMNS CITY PARK   N/A     44  34  68 W2G9      30.06F
AURORA         PTCLDY    44  34  68 SW9       30.07R
FRONT RANGE AP FAIR      45  36  70 S15G23    30.07S
ERIE MUNI ARPT FAIR      40  35  82 NW3       30.07S
BOULDER MUN AP FAIR      43  34  70 NW5       30.07R
CENTENNIAL     FAIR      44  33  65 S14       30.08S
BROOMFIELD     FAIR      43  36  75 N15       30.06F
FORT COLLINS   FAIR      39  32  76 N13       30.08F
LONGMONT       FAIR      45  36  71 N10       30.08F
$$

COZ041-046-047-076>085-087-088-221000-
...PIKES PEAK/PALMER DIVIDE AND SOUTHERN FOOTHILLS...

CITY           SKY/WX    TMP DP  RH WIND       PRES   REMARKS
COLO. SPRINGS  CLOUDY    38  30  73 SE10      30.19F
A. F. ACADEMY  CLOUDY    38  31  76 SE13      30.17F
SCHRIEVER AFB  MOCLDY    35  30  80 S6        30.20F WCI  30
ELLICOTT         N/A    N/A N/A N/A SE9       30.17F
FALCON         CLOUDY    35  31  85 S12       30.19F WCI  26
FORT CARSON    CLOUDY    37  32  81 E6        30.18F
LIMON          FAIR      32  26  78 S9        30.18F WCI  24
MONUMENT HILL  FAIR      32  32 100 S21       30.15S WCI  20
TRINIDAD       FAIR      43  33  68 E5        30.13F
$$

COZ042>045-048>051-090-091-221000-
...NORTHEAST COLORADO...

CITY           SKY/WX    TMP DP  RH WIND       PRES   REMARKS
GREELEY ARPT   FAIR      41  31  67 SE17      30.07F
AKRON          FAIR      36  22  56 SE23      30.15F
BURLINGTON     MOCLDY    40  30  67 SE21G26   30.20F
WRAY           CLOUDY    39  32  75 SE15      30.23F
STERLING       FAIR      37  28  70 S8        30.17S
HOLYOKE        CLOUDY    37  32  81 SE20      30.21F
FORT MORGAN    FAIR      37  25  61 E10G16    30.15F
$$

COZ086-089-092>099-221000-
...SOUTHEAST COLORADO...

CITY           SKY/WX    TMP DP  RH WIND       PRES   REMARKS
PUEBLO         FAIR      40  31  70 NE9       30.17F
LA JUNTA       FAIR      41  31  67 E13       30.16S
LAMAR          FAIR      41  25  53 E6        30.18F
SPRINGFIELD      N/A     37  33  85 S10       30.19S
$$



USA.gov is the U.S. government's official web portal to all federal, state and local government web resources and services.